BCS246 EDDL-EDDP

Flight info

Callsign BCS246
Flight time N/A
Altitude 23000
Route NUDGO5Z/05R NUDGO Z858 BERDI T958 KOJEC KOJEC1R
Aircraft A333/H-SDE3GHIJ2J3J5M1RVWXY/LB2D1

Departure

Time 2026-04-30 19:37
Airport Düsseldorf Airport (EDDL)

Arrival

Time N/A
Airport Leipzig/Halle Airport (EDDP)
Time Latitude Longitude Altitude Speed Heading
2026-04-30 19:09 51.27582 6.75642 141 ft 0 kts 63°
2026-04-30 19:28 51.27575 6.75622 114 ft 2 kts 63°
2026-04-30 19:29 51.27554 6.75585 141 ft 2 kts
2026-04-30 19:29 51.27538 6.75588 141 ft 2 kts 345°
2026-04-30 19:30 51.27493 6.75619 141 ft 2 kts 334°
2026-04-30 19:30 51.27468 6.75638 141 ft 1 kts 333°
2026-04-30 19:31 51.27467 6.75639 141 ft 0 kts 333°
2026-04-30 19:32 51.27468 6.75638 141 ft 1 kts 333°
2026-04-30 19:33 51.27472 6.75635 141 ft 0 kts 334°
2026-04-30 19:33 51.27482 6.75627 141 ft 6 kts 336°
2026-04-30 19:33 51.27528 6.75588 141 ft 10 kts 332°
2026-04-30 19:33 51.27594 6.75538 141 ft 11 kts 340°
2026-04-30 19:34 51.27665 6.75488 141 ft 11 kts 333°
2026-04-30 19:34 51.27740 6.75428 141 ft 13 kts 334°
2026-04-30 19:34 51.27792 6.75388 140 ft 3 kts 334°
2026-04-30 19:35 51.27819 6.75366 140 ft 6 kts 334°
2026-04-30 19:35 51.27861 6.75334 139 ft 8 kts 334°
2026-04-30 19:35 51.27923 6.75285 136 ft 13 kts 334°
2026-04-30 19:35 51.27967 6.75280 130 ft 8 kts 10°
2026-04-30 19:36 51.28044 6.75381 128 ft 32 kts 44°
2026-04-30 19:37 51.29662 6.78798 828 ft 152 kts 56°
2026-04-30 19:37 51.30294 6.80190 1604 ft 158 kts 62°
2026-04-30 19:37 51.30975 6.81776 2087 ft 187 kts 61°
2026-04-30 19:37 51.31819 6.83581 2402 ft 218 kts 58°
2026-04-30 19:38 51.32804 6.85616 2843 ft 240 kts 58°
2026-04-30 19:38 51.33830 6.87806 3509 ft 250 kts 59°
2026-04-30 19:38 51.34778 6.90119 4256 ft 252 kts 69°
2026-04-30 19:38 51.35199 6.92788 5090 ft 248 kts 92°
2026-04-30 19:39 51.35062 6.95540 5949 ft 249 kts 100°
2026-04-30 19:39 51.34786 6.98286 6834 ft 251 kts 101°
2026-04-30 19:39 51.34490 7.01056 7705 ft 253 kts 101°
2026-04-30 19:39 51.34193 7.03859 8551 ft 257 kts 100°
2026-04-30 19:40 51.33898 7.06709 9362 ft 262 kts 100°
2026-04-30 19:40 51.33605 7.09563 10200 ft 265 kts 100°
2026-04-30 19:40 51.33303 7.12531 10771 ft 278 kts 100°
2026-04-30 19:40 51.32980 7.15697 11094 ft 298 kts 99°
2026-04-30 19:41 51.32676 7.19095 11394 ft 318 kts 97°
2026-04-30 19:41 51.32398 7.22728 11698 ft 337 kts 97°
2026-04-30 19:41 51.32120 7.26487 12197 ft 348 kts 97°
2026-04-30 19:41 51.31833 7.30357 12896 ft 353 kts 97°
2026-04-30 19:42 51.31643 7.34302 13619 ft 357 kts 90°
2026-04-30 19:42 51.31817 7.38296 14312 ft 362 kts 84°
2026-04-30 19:42 51.32135 7.42304 14987 ft 364 kts 83°
2026-04-30 19:42 51.32494 7.46338 15573 ft 370 kts 82°
2026-04-30 19:43 51.32877 7.50489 15980 ft 380 kts 82°
2026-04-30 19:43 51.33270 7.54691 16608 ft 382 kts 82°
2026-04-30 19:43 51.33665 7.58903 17316 ft 383 kts 82°
2026-04-30 19:44 51.34460 7.67383 18541 ft 390 kts 81°
2026-04-30 19:44 51.34862 7.71693 19081 ft 393 kts 81°